Weather History for KCGE - April, 2014

Change the Weather History Date:

Monday, April 28, 2014

  Actual Average (KESN) Record (KESN)
Temperature  
Mean Temperature 52 °F -  
Max Temperature 62 °F 66 °F 89 °F (1957)
Min Temperature 42 °F 45 °F 34 °F (1972)
Degree Days  
Heating Degree Days 13    
Growing Degree Days 2 (Base 50)    
Moisture  
Dew Point 43 °F    
Average Humidity 69    
Maximum Humidity 93    
Minimum Humidity 42    
Precipitation  
Precipitation 0.00 in - - ()
Sea Level Pressure  
Sea Level Pressure 30.08 in    
Wind  
Wind Speed 3 mph (ESE)    
Max Wind Speed 10 mph    
Max Gust Speed -    
Visibility 9 miles    
Events      
Averages and records for this station are not official NWS values.
T = Trace of Precipitation, MM = Missing Value Source: NWS Daily Summary

Daily Weather History Graph

Daily Weather History Graph

Search for Another Location

Airport or City:

Trip Planner

Search our weather history database for the weather conditions in past years. The results will help you decide how hot, cold, wet, or windy it might be!

Date:

Astronomy

Apr. 28, 2014 Rise Set
Actual Time 6:10 AM EDT 7:53 PM EDT
Civil Twilight 5:42 AM EDT 8:21 PM EDT
Nautical Twilight 5:08 AM EDT 8:55 PM EDT
Astronomical Twilight 4:31 AM EDT 9:32 PM EDT
Moon 5:46 AM EDT (4/28) 7:29 PM EDT (4/28)
Length of Visible Light 14h 39m
Length of Day
13h 42m
Waning Crescent, 0% of the Moon is Illuminated
Apr 28
Waning Crescent
Apr 29
New
May 6
First Quarter
May 14
Full
May 21
Last Quarter

Hourly Weather History & Observations

Time (EDT) Temp. Dew Point Humidity Pressure Visibility Wind Dir Wind Speed Gust Speed Precip Events Conditions
12:24 AM 48.2 °F 42.8 °F 82% 30.09 in 10.0 mi Calm Calm - N/A   Clear
1:04 AM 46.4 °F 42.8 °F 87% 30.10 in 10.0 mi Calm Calm - N/A   Clear
1:24 AM 46.4 °F 41.0 °F 81% 30.09 in 10.0 mi Calm Calm - N/A   Clear
1:44 AM 44.6 °F 41.0 °F 87% 30.09 in 10.0 mi Calm Calm - N/A   Clear
2:04 AM 44.6 °F 41.0 °F 87% 30.08 in 10.0 mi Calm Calm - N/A   Clear
2:24 AM 44.6 °F 41.0 °F 87% 30.08 in 10.0 mi Calm Calm - N/A   Clear
2:44 AM 44.6 °F 41.0 °F 87% 30.07 in 10.0 mi Calm Calm - N/A   Clear
3:04 AM 44.6 °F 41.0 °F 87% 30.07 in 10.0 mi Calm Calm - N/A   Clear
3:24 AM 44.6 °F 41.0 °F 87% 30.07 in 10.0 mi Calm Calm - N/A   Clear
3:44 AM 42.8 °F 41.0 °F 93% 30.08 in 10.0 mi Calm Calm - N/A   Clear
4:04 AM 44.6 °F 41.0 °F 87% 30.09 in 10.0 mi Calm Calm - N/A   Clear
4:24 AM 44.6 °F 41.0 °F 87% 30.09 in 10.0 mi Calm Calm - N/A   Clear
5:04 AM 48.2 °F 44.6 °F 87% 30.07 in 10.0 mi Calm Calm - N/A   Clear
5:24 AM 51.8 °F 46.4 °F 82% 30.08 in 10.0 mi NNE 3.5 mph - N/A   Clear
5:44 AM 51.8 °F 44.6 °F 76% 30.09 in 10.0 mi NE 3.5 mph - N/A   Clear
6:04 AM 51.8 °F 44.6 °F 76% 30.09 in 10.0 mi NE 5.8 mph - N/A   Scattered Clouds
6:25 AM 51.8 °F 44.6 °F 76% 30.10 in 10.0 mi NE 6.9 mph - N/A   Scattered Clouds
6:45 AM 51.8 °F 44.6 °F 76% 30.10 in 10.0 mi NE 5.8 mph - N/A   Mostly Cloudy
7:05 AM 51.8 °F 44.6 °F 76% 30.11 in 10.0 mi ENE 4.6 mph - N/A   Mostly Cloudy
7:25 AM 51.8 °F 42.8 °F 71% 30.12 in 10.0 mi ENE 4.6 mph - N/A   Overcast
7:45 AM 51.8 °F 42.8 °F 71% 30.13 in 10.0 mi NE 3.5 mph - N/A   Overcast
8:05 AM 51.8 °F 41.0 °F 67% 30.12 in 10.0 mi NE 6.9 mph - N/A   Overcast
8:25 AM 51.8 °F 41.0 °F 67% 30.12 in 10.0 mi ENE 10.4 mph - N/A   Overcast
8:45 AM 53.6 °F 41.0 °F 62% 30.12 in 10.0 mi ENE 5.8 mph - N/A   Overcast
9:05 AM 55.4 °F 42.8 °F 63% 30.12 in 10.0 mi East 8.1 mph - N/A   Overcast
9:25 AM 55.4 °F 41.0 °F 58% 30.11 in 10.0 mi East 9.2 mph - N/A   Mostly Cloudy
9:45 AM 55.4 °F 41.0 °F 58% 30.11 in 10.0 mi East 8.1 mph - N/A   Mostly Cloudy
10:05 AM 55.4 °F 39.2 °F 54% 30.12 in 10.0 mi ESE 5.8 mph - N/A   Mostly Cloudy
10:25 AM 57.2 °F 41.0 °F 55% 30.12 in 10.0 mi ESE 4.6 mph - N/A   Mostly Cloudy
10:45 AM 59.0 °F 39.2 °F 48% 30.10 in 10.0 mi East 5.8 mph - N/A   Mostly Cloudy
11:05 AM 59.0 °F 39.2 °F 48% 30.10 in 10.0 mi Calm Calm - N/A   Mostly Cloudy
11:25 AM 59.0 °F 41.0 °F 51% 30.09 in 10.0 mi East 5.8 mph - N/A   Mostly Cloudy
11:45 AM 60.8 °F 41.0 °F 48% 30.08 in 10.0 mi East 6.9 mph - N/A   Scattered Clouds
12:05 PM 60.8 °F 41.0 °F 48% 30.08 in 10.0 mi ENE 4.6 mph - N/A   Mostly Cloudy
12:25 PM 60.8 °F 39.2 °F 45% 30.08 in 10.0 mi East 3.5 mph - N/A   Mostly Cloudy
12:45 PM 60.8 °F 39.2 °F 45% 30.07 in 10.0 mi Calm Calm - N/A   Mostly Cloudy
1:05 PM 62.6 °F 39.2 °F 42% 30.06 in 10.0 mi South 3.5 mph - N/A   Scattered Clouds
1:25 PM 60.8 °F 39.2 °F 45% 30.07 in 10.0 mi SE 5.8 mph - N/A   Scattered Clouds
1:45 PM 62.6 °F 39.2 °F 42% 30.05 in 10.0 mi SSE 5.8 mph - N/A   Scattered Clouds
2:25 PM 60.8 °F 37.4 °F 42% 30.05 in 10.0 mi SSE 3.5 mph - N/A   Scattered Clouds
2:45 PM 60.8 °F 37.4 °F 42% 30.05 in 10.0 mi SE 5.8 mph - N/A   Mostly Cloudy
3:06 PM 60.8 °F 39.2 °F 45% 30.05 in 10.0 mi SSW 5.8 mph - N/A   Mostly Cloudy
3:26 PM 60.8 °F 39.2 °F 45% 30.05 in 10.0 mi SW 5.8 mph - N/A   Overcast
3:46 PM 60.8 °F 37.4 °F 42% 30.04 in 10.0 mi South 4.6 mph - N/A   Mostly Cloudy
4:06 PM 59.0 °F 41.0 °F 51% 30.05 in 10.0 mi SSW 4.6 mph - N/A   Overcast
4:26 PM 59.0 °F 41.0 °F 51% 30.05 in 10.0 mi SSW 5.8 mph - N/A   Overcast
4:46 PM 59.0 °F 41.0 °F 51% 30.05 in 10.0 mi SSW 5.8 mph - N/A   Overcast
5:06 PM 57.2 °F 41.0 °F 55% 30.04 in 10.0 mi South 5.8 mph - N/A   Overcast
5:26 PM 55.4 °F 42.8 °F 63% 30.03 in 10.0 mi South 5.8 mph - N/A   Overcast
5:46 PM 55.4 °F 48.2 °F 77% 30.02 in 7.0 mi South 4.6 mph - N/A   Overcast
6:06 PM 53.6 °F 46.4 °F 77% 30.01 in 10.0 mi SSE 5.8 mph - N/A   Overcast
6:26 PM 53.6 °F 48.2 °F 82% 30.02 in 10.0 mi SE 5.8 mph - N/A   Overcast
6:46 PM 53.6 °F 46.4 °F 77% 30.03 in 10.0 mi ESE 4.6 mph - N/A   Overcast
7:06 PM 51.8 °F 46.4 °F 82% 30.04 in 10.0 mi ESE 8.1 mph - N/A   Overcast
7:26 PM 51.8 °F 44.6 °F 76% 30.04 in 10.0 mi ESE 4.6 mph - N/A   Overcast
7:46 PM 51.8 °F 46.4 °F 82% 30.05 in 7.0 mi ESE 6.9 mph - N/A   Overcast
8:06 PM 51.8 °F 46.4 °F 82% 30.06 in 7.0 mi Calm Calm - N/A   Overcast
8:26 PM 51.8 °F 46.4 °F 82% 30.07 in 7.0 mi Calm Calm - N/A   Overcast
8:46 PM 51.8 °F 46.4 °F 82% 30.06 in 10.0 mi East 4.6 mph - N/A   Overcast
9:06 PM 51.8 °F 46.4 °F 82% 30.07 in 7.0 mi SE 4.6 mph - N/A   Overcast
9:26 PM 51.8 °F 46.4 °F 82% 30.06 in 7.0 mi ESE 6.9 mph - N/A   Overcast
10:06 PM 51.8 °F 46.4 °F 82% 30.06 in 5.0 mi ESE 4.6 mph - N/A   Overcast
10:26 PM 50.0 °F 46.4 °F 87% 30.07 in 5.0 mi East 3.5 mph - N/A   Overcast
10:46 PM 48.2 °F 44.6 °F 87% 30.07 in 5.0 mi East 8.1 mph - N/A   Overcast
11:06 PM 48.2 °F 44.6 °F 87% 30.08 in 5.0 mi East 6.9 mph - N/A   Overcast
11:26 PM 48.2 °F 44.6 °F 87% 30.08 in 7.0 mi ESE 8.1 mph - N/A   Overcast
11:46 PM 48.2 °F 44.6 °F 87% 30.09 in 4.0 mi ESE 6.9 mph - N/A   Overcast